Wind_Speed
58 65 66 66 74 74 76 73 85 86 85 85 84 77 69 64 60 57 49 42 45 43 37 37 33 34 34 31 29 33 39 36 35 36 42 50 45 44 43 47 47 44 47 52 55 57 60
65 72 76 75 73 84 78 88 86 94 92 95 89 78 68 64 56 51 45 38 38 36 30 30 29 32 32 25 28 28 27 23 26 28 33 40 37 37 38 38 38 41 43 45 49 53 58
79 79 81 82 82 90 88 88 94 98 101 104 94 78 71 65 56 49 41 36 35 29 25 25 31 32 28 24 22 23 17 17 19 21 26 31 32 30 30 30 32 35 41 45 46 47 51
87 94 87 88 86 94 90 91 95 99 103 98 90 82 72 64 53 44 38 33 31 29 24 27 33 30 25 23 21 13 13 10 13 18 17 26 31 28 30 29 33 33 35 39 39 39 40
99 103 91 103 94 97 99 95 102 102 102 97 90 83 73 61 48 38 32 32 31 28 25 32 34 29 28 25 16 13 9 5 10 15 16 20 22 26 21 23 25 28 29 26 27 29 28
99 109 107 114 102 107 108 105 108 106 107 100 91 78 64 48 40 30 26 32 32 30 32 37 34 35 31 25 18 12 7 4 8 14 17 15 16 13 16 14 17 19 21 18 21 24 23
102 111 118 117 115 114 119 111 111 109 107 97 84 64 46 36 30 24 26 34 34 34 34 40 41 38 32 26 18 12 4 3 5 11 15 10 10 10 10 12 15 15 17 15 13 21 23
105 112 120 122 132 133 132 120 113 110 101 85 64 44 35 30 25 23 29 33 36 36 42 44 44 39 32 24 19 11 5 3 3 8 9 8 10 12 11 13 13 12 12 11 12 15 25
109 117 124 126 142 146 142 125 117 107 88 65 49 36 30 23 20 24 33 35 41 37 45 46 44 38 31 25 19 11 8 6 2 6 10 12 15 17 18 17 15 14 12 10 10 16 21
107 121 124 133 141 155 150 126 115 99 75 54 40 27 20 16 19 28 36 42 42 46 49 48 45 38 32 25 15 11 9 8 5 9 12 15 19 22 23 21 19 15 14 13 8 13 20
113 120 126 135 143 158 153 130 111 89 60 45 30 17 12 12 19 33 42 49 50 50 51 48 44 38 31 23 16 13 11 9 8 11 15 15 17 21 24 25 25 23 17 14 13 11 20
113 118 128 142 148 158 164 132 104 73 51 36 21 11 5 13 28 43 49 54 55 53 53 50 44 37 29 21 18 15 13 11 9 12 17 18 18 18 20 23 24 24 26 17 14 14 17
114 123 130 143 151 157 166 125 96 64 46 27 13 3 10 24 39 47 54 59 56 59 54 50 42 34 27 21 17 15 14 10 9 12 14 18 20 20 20 21 24 24 25 24 17 16 18
116 121 131 144 150 160 164 114 88 58 39 22 11 4 20 35 46 56 59 60 60 57 55 48 41 33 26 21 17 15 12 11 10 14 17 19 20 22 23 21 21 19 22 23 20 17 22
115 125 130 144 154 165 151 103 81 53 34 19 7 12 30 43 56 62 62 60 58 55 52 47 39 33 27 22 17 14 11 12 12 16 17 19 21 24 27 29 25 22 21 20 16 16 19
115 122 129 142 151 160 136 96 72 48 32 18 6 21 38 50 62 63 61 54 55 58 51 43 36 32 27 22 17 13 10 12 13 16 21 22 25 26 27 29 31 26 20 18 14 13 13
114 120 128 141 148 155 151 92 68 48 33 16 11 26 42 59 61 59 55 56 58 54 48 41 35 30 28 21 15 12 10 12 16 20 24 26 27 30 30 33 37 35 28 22 16 13 8
114 121 122 137 146 149 156 93 69 51 33 11 15 29 50 56 58 56 53 55 55 52 44 38 33 29 26 19 15 12 12 15 19 24 28 31 32 33 36 35 37 41 39 28 22 18 10
113 118 124 132 142 148 149 129 68 56 29 12 18 39 44 54 54 52 52 53 51 48 41 36 32 29 24 18 16 12 13 16 19 24 28 31 33 37 39 41 42 43 39 35 28 23 16
109 114 122 131 140 144 145 149 76 46 22 17 20 39 48 52 50 48 46 49 48 44 38 33 30 28 23 18 15 12 13 14 18 22 27 31 35 39 41 45 43 42 42 40 33 24 20
109 112 121 126 132 137 138 141 110 45 23 22 28 38 44 44 43 43 47 47 44 39 35 30 28 26 22 17 12 10 11 12 16 21 27 31 35 40 42 44 45 43 43 36 39 29 21
106 111 119 123 127 133 135 141 139 61 30 17 23 33 35 38 39 43 44 44 39 35 30 26 24 23 21 16 10 9 8 10 15 21 25 28 33 39 43 47 49 48 47 45 37 41 33
100 111 117 122 125 123 123 128 131 111 45 20 21 27 29 32 35 39 38 38 33 31 27 22 20 19 19 15 9 7 6 7 13 19 22 26 31 36 41 44 50 52 53 52 50 51 49
97 106 114 118 124 124 125 126 125 126 86 25 11 13 20 28 32 36 35 32 29 26 24 19 16 15 17 14 9 5 2 5 10 16 20 23 28 33 37 43 48 52 55 53 53 53 57
102 105 111 115 115 119 120 125 123 122 112 56 17 9 7 14 26 30 29 28 27 25 21 18 15 14 15 13 9 4 1 4 8 13 17 21 26 30 35 40 46 50 52 57 56 55 57
99 102 103 111 112 111 119 121 126 122 114 99 28 13 4 10 24 27 26 27 23 24 21 18 15 14 14 13 11 6 3 5 8 12 16 19 23 27 32 36 41 46 51 55 58 60 62
96 97 100 106 104 108 111 115 119 116 120 109 50 20 10 10 21 28 27 26 26 26 24 21 18 16 15 13 13 10 7 7 8 12 16 19 21 24 28 33 38 42 47 52 55 62 64
98 98 99 99 101 106 108 112 109 112 114 106 65 23 15 13 20 30 31 29 27 26 24 23 21 19 17 16 15 14 12 11 11 13 16 19 20 23 27 30 33 38 42 47 54 58 67
97 93 96 99 102 109 111 115 120 118 111 107 69 40 18 18 23 30 36 30 29 28 27 25 23 22 21 19 18 17 16 15 14 14 16 19 20 23 25 28 31 35 40 45 49 54 59
Wind_Direction
349 351 347 339 345 340 344 337 344 342 338 333 326 319 312 311 307 299 292 282 276 273 270 258 248 244 234 242 243 244 250 253 258 261 262 264 268 266 264 265 264 265 261 259 256 254 250
358 353 349 347 339 338 334 343 338 339 338 333 328 317 312 310 302 296 290 282 273 269 261 255 244 229 228 232 231 242 254 259 261 263 268 273 270 269 272 270 265 265 265 262 255 249 246
357 353 348 344 344 343 342 336 338 336 334 332 326 319 312 308 301 292 285 275 265 261 248 238 230 211 215 215 225 238 254 260 260 270 279 290 286 283 280 282 281 280 272 264 260 251 242
360 357 352 350 339 345 340 338 334 336 334 328 322 316 310 303 295 283 275 261 254 247 232 224 211 199 198 199 212 231 241 244 275 271 285 297 296 297 293 287 288 279 276 267 260 249 241
3 360 351 353 348 346 343 339 341 338 332 327 323 315 308 298 286 272 261 243 234 229 219 212 192 191 183 194 203 220 220 275 282 288 292 281 289 292 282 287 284 290 282 272 263 251 236
357 357 356 356 351 347 347 343 340 337 331 325 320 313 304 292 277 261 241 226 218 210 209 195 185 179 178 185 196 205 194 254 290 292 281 257 269 285 297 292 293 296 287 277 259 248 227
359 358 359 356 354 351 349 342 341 336 329 326 319 313 302 284 270 241 216 210 205 197 204 184 177 173 176 174 189 184 186 216 272 293 293 291 295 302 313 322 325 324 298 272 260 235 212
359 356 1 357 355 353 349 343 341 336 331 326 319 313 297 282 252 224 202 196 189 196 180 177 173 170 165 176 176 169 165 195 286 311 316 328 348 1 2 357 345 335 312 292 272 238 209
359 357 360 358 357 354 351 347 342 338 334 327 321 312 295 271 234 202 189 183 176 184 175 171 170 161 165 165 168 155 162 135 48 348 2 359 4 16 16 11 359 350 336 309 269 234 214
356 359 360 357 358 355 353 349 343 339 335 330 322 311 293 257 211 186 172 170 169 172 168 168 163 160 166 161 159 152 144 123 92 51 29 14 12 9 5 7 359 357 340 328 294 247 226
356 357 358 358 357 357 357 350 344 341 338 333 324 307 280 222 191 167 164 160 164 162 164 162 156 162 163 160 153 151 135 106 84 56 38 24 20 10 359 358 350 349 348 326 305 259 235
353 356 358 356 357 355 356 349 345 345 343 334 328 310 227 175 164 158 159 156 157 159 161 156 157 163 160 156 150 138 112 91 68 57 40 28 22 13 3 354 344 339 334 332 294 272 229
354 356 355 355 354 356 356 350 347 348 346 343 342 319 153 155 157 156 153 154 155 158 157 152 158 155 159 151 141 122 97 85 66 58 45 34 23 11 7 357 346 335 327 323 313 275 252
355 354 355 356 355 355 353 351 350 352 349 356 360 125 147 157 154 150 149 150 155 156 153 153 156 156 154 143 131 108 90 74 52 48 41 36 26 14 13 6 354 333 328 321 309 282 257
351 355 354 357 357 360 357 353 352 355 355 11 21 136 150 154 150 146 146 149 153 154 149 152 155 156 149 141 126 105 82 62 45 37 36 36 28 21 11 9 2 355 343 335 312 294 259
351 351 354 354 358 360 2 356 356 1 4 15 78 140 152 151 147 144 144 148 152 150 151 155 157 153 144 136 123 104 81 61 42 36 33 31 29 27 19 7 15 17 3 354 339 304 276
351 351 352 353 357 0 5 1 0 5 9 14 117 143 150 149 144 141 142 149 150 150 150 154 154 149 138 135 122 108 82 62 42 36 29 26 21 32 29 19 14 22 28 16 6 349 309
352 353 351 353 357 360 6 7 11 10 11 34 128 143 149 145 139 138 143 150 151 149 153 155 153 146 140 136 122 104 74 54 38 30 26 20 20 20 35 29 25 18 22 32 22 14 356
348 350 351 354 357 1 8 8 12 14 14 73 124 145 147 137 132 137 146 152 153 150 153 155 151 144 140 133 117 95 66 50 39 29 24 19 18 19 25 35 31 29 23 32 26 19 24
348 347 349 352 354 357 5 8 11 19 42 76 126 141 139 132 134 142 150 154 156 153 155 155 150 144 139 130 112 93 68 50 40 32 24 18 16 17 22 28 40 32 26 30 37 29 18
345 347 348 349 352 355 1 7 14 24 42 98 131 132 128 130 139 147 152 157 158 156 156 156 152 146 141 132 119 98 69 49 39 30 24 18 14 16 15 20 26 35 38 31 37 40 30
342 343 346 347 349 354 358 2 10 10 31 98 116 118 120 137 148 154 158 163 161 158 157 159 154 155 148 141 130 103 71 45 29 27 27 19 13 16 14 12 17 19 30 35 49 40 41
340 342 342 342 346 350 354 359 3 11 8 32 108 115 126 142 154 157 165 171 163 162 161 161 159 164 160 155 149 122 80 42 26 23 26 23 14 16 12 12 13 12 18 19 27 33 39
338 338 341 342 344 347 351 354 359 5 9 20 55 90 129 157 164 163 172 176 170 168 165 166 172 174 177 173 173 140 95 15 14 13 20 22 16 15 16 10 10 11 9 14 16 26 29
332 332 334 338 343 345 348 350 353 356 2 354 9 43 119 171 177 172 180 187 178 176 175 178 185 193 194 195 194 187 214 321 349 360 10 17 15 12 14 11 11 12 8 9 14 15 21
330 333 331 332 338 341 342 344 345 351 354 357 335 350 338 195 186 184 191 195 196 192 186 190 196 209 214 214 221 220 249 296 329 346 353 2 10 10 14 12 13 12 10 9 8 6 16
326 331 329 331 333 334 337 340 341 346 348 353 340 326 316 246 206 196 205 212 212 210 200 203 207 216 224 232 239 241 249 274 307 326 332 346 355 1 7 11 9 10 9 9 8 6 11
323 322 327 325 329 331 333 334 337 341 343 348 343 303 300 261 236 214 212 219 225 227 223 218 218 225 230 237 245 249 248 265 286 306 318 330 343 351 356 1 5 7 8 8 9 8 7
320 317 322 320 325 325 326 331 333 337 339 340 340 318 272 250 240 233 223 223 228 232 237 237 238 237 245 246 250 256 256 259 276 295 308 318 329 340 347 351 358 360 3 5 6 5 3
Height
10700 10689 10676 10664 10651 10639 10622 10607 10593 10581 10568 10554 10541 10528 10515 10505 10496 10490 10486 10486 10487 10490 10497 10502 10510 10517 10526 10530 10536 10539 10545 10554 10560 10561 10560 10553 10558 10560 10561 10559 10559 10560 10559 10557 10556 10559 10559
10692 10679 10669 10657 10640 10624 10605 10587 10575 10561 10546 10532 10519 10504 10494 10485 10478 10473 10472 10473 10474 10480 10485 10492 10502 10509 10515 10522 10527 10533 10542 10550 10551 10550 10548 10543 10547 10548 10546 10546 10547 10545 10542 10541 10541 10541 10544
10683 10669 10658 10641 10625 10613 10594 10577 10556 10540 10524 10507 10494 10483 10472 10464 10459 10456 10457 10460 10463 10470 10475 10484 10493 10500 10508 10516 10524 10531 10540 10544 10544 10543 10542 10537 10537 10538 10536 10534 10533 10532 10529 10525 10524 10525 10525
10674 10660 10643 10630 10613 10595 10580 10561 10545 10526 10509 10492 10472 10459 10451 10442 10438 10437 10442 10447 10453 10461 10467 10475 10485 10492 10503 10513 10520 10530 10536 10539 10538 10537 10538 10533 10529 10531 10526 10524 10522 10520 10514 10510 10508 10509 10511
10665 10649 10632 10616 10597 10580 10561 10542 10526 10506 10486 10470 10453 10436 10425 10418 10416 10418 10426 10433 10441 10452 10460 10468 10479 10489 10501 10511 10519 10526 10532 10534 10533 10532 10534 10533 10528 10523 10522 10517 10512 10506 10502 10499 10498 10497 10499
10657 10641 10622 10603 10580 10565 10542 10521 10503 10481 10461 10444 10425 10410 10399 10394 10394 10401 10409 10418 10429 10443 10453 10464 10476 10485 10499 10508 10516 10524 10529 10530 10529 10528 10528 10529 10524 10519 10513 10511 10506 10499 10493 10491 10491 10489 10492
10648 10630 10609 10587 10567 10545 10524 10504 10481 10457 10436 10415 10397 10384 10377 10373 10377 10384 10395 10405 10419 10435 10447 10460 10472 10483 10496 10506 10514 10521 10524 10525 10526 10524 10522 10521 10518 10514 10509 10504 10498 10493 10491 10488 10487 10485 10487
10636 10622 10595 10577 10559 10530 10508 10486 10459 10435 10411 10392 10373 10365 10360 10358 10363 10371 10383 10397 10412 10429 10443 10457 10470 10482 10494 10503 10513 10518 10521 10522 10522 10521 10518 10515 10512 10508 10505 10500 10497 10494 10490 10488 10484 10483 10484
10628 10612 10587 10567 10545 10519 10492 10461 10434 10407 10386 10368 10356 10349 10347 10348 10353 10362 10375 10391 10407 10425 10441 10458 10470 10483 10494 10502 10511 10515 10519 10519 10520 10518 10514 10511 10508 10505 10502 10498 10496 10492 10489 10486 10484 10482 10482
10621 10604 10580 10561 10528 10504 10471 10438 10410 10387 10366 10350 10343 10338 10338 10341 10347 10357 10372 10389 10405 10424 10442 10458 10471 10483 10494 10502 10509 10513 10516 10517 10519 10517 10514 10511 10507 10503 10500 10497 10494 10492 10487 10483 10482 10482 10481
10616 10596 10572 10550 10519 10487 10450 10420 10394 10371 10352 10342 10335 10331 10332 10337 10345 10356 10371 10385 10405 10424 10442 10460 10473 10484 10494 10502 10508 10512 10514 10516 10517 10515 10513 10511 10508 10504 10499 10494 10490 10487 10484 10481 10478 10478 10480
10609 10586 10564 10538 10507 10477 10442 10409 10381 10361 10345 10337 10331 10329 10331 10338 10345 10356 10371 10386 10406 10426 10444 10461 10475 10485 10494 10502 10507 10509 10511 10514 10515 10514 10513 10510 10508 10505 10500 10494 10489 10483 10480 10478 10475 10474 10477
10601 10578 10556 10532 10504 10471 10433 10401 10376 10355 10342 10334 10329 10330 10334 10340 10350 10362 10375 10392 10410 10428 10447 10463 10476 10486 10494 10501 10505 10507 10510 10515 10515 10514 10514 10512 10508 10505 10501 10495 10488 10481 10475 10472 10470 10468 10470
10595 10575 10553 10528 10500 10465 10428 10392 10372 10354 10343 10335 10332 10334 10339 10347 10355 10367 10382 10398 10415 10433 10450 10466 10478 10487 10495 10502 10505 10506 10511 10515 10515 10515 10514 10512 10511 10505 10500 10495 10488 10481 10473 10468 10465 10462 10461
10593 10573 10554 10529 10498 10461 10420 10389 10370 10356 10346 10340 10339 10341 10346 10355 10365 10374 10388 10404 10424 10442 10457 10469 10480 10489 10496 10503 10506 10509 10513 10515 10515 10514 10513 10512 10510 10504 10498 10492 10487 10479 10471 10465 10461 10458 10456
10590 10572 10555 10529 10502 10469 10424 10393 10377 10362 10353 10348 10348 10350 10357 10365 10372 10383 10398 10417 10433 10447 10462 10474 10484 10491 10498 10503 10507 10511 10515 10517 10516 10514 10512 10510 10507 10504 10498 10490 10483 10475 10469 10463 10459 10456 10455
10589 10572 10553 10532 10507 10479 10439 10403 10386 10372 10363 10360 10360 10364 10369 10376 10384 10397 10410 10426 10442 10455 10467 10479 10487 10495 10500 10506 10510 10514 10517 10517 10516 10514 10512 10508 10505 10504 10497 10488 10479 10474 10468 10463 10459 10455 10452
10589 10573 10555 10537 10516 10492 10455 10422 10401 10386 10378 10376 10377 10380 10385 10390 10398 10409 10424 10437 10450 10462 10474 10484 10492 10498 10503 10508 10512 10516 10518 10517 10516 10514 10512 10509 10506 10500 10497 10490 10479 10471 10466 10463 10458 10454 10451
10590 10573 10556 10541 10522 10500 10470 10438 10419 10405 10397 10395 10397 10400 10404 10408 10417 10426 10438 10450 10462 10471 10481 10490 10497 10502 10507 10512 10514 10517 10518 10518 10518 10516 10514 10512 10509 10503 10496 10491 10480 10472 10468 10464 10460 10454 10450
10591 10574 10559 10545 10527 10505 10489 10472 10439 10427 10423 10420 10420 10422 10424 10425 10433 10443 10454 10462 10471 10480 10489 10495 10501 10505 10510 10515 10517 10519 10520 10521 10520 10519 10517 10513 10509 10502 10496 10490 10485 10479 10472 10464 10460 10455 10450
10591 10576 10561 10547 10534 10517 10502 10489 10465 10458 10452 10446 10447 10446 10445 10448 10454 10461 10468 10475 10483 10490 10496 10502 10506 10510 10514 10518 10520 10522 10523 10523 10523 10522 10519 10515 10510 10505 10497 10493 10488 10486 10479 10470 10462 10458 10452
10592 10578 10563 10551 10540 10525 10515 10503 10505 10490 10484 10476 10471 10470 10468 10468 10473 10478 10482 10488 10494 10499 10504 10509 10513 10515 10519 10521 10524 10525 10526 10526 10525 10524 10521 10517 10512 10507 10500 10494 10489 10484 10479 10479 10471 10464 10457
10595 10580 10566 10554 10545 10538 10534 10524 10518 10515 10505 10497 10489 10483 10484 10485 10488 10492 10497 10501 10504 10508 10511 10515 10518 10521 10523 10525 10527 10528 10529 10529 10528 10526 10524 10520 10515 10511 10504 10498 10491 10484 10479 10475 10471 10464 10459
10597 10581 10572 10556 10544 10537 10532 10530 10527 10524 10525 10517 10511 10505 10501 10502 10503 10504 10506 10510 10513 10515 10518 10521 10523 10525 10526 10528 10529 10530 10530 10530 10530 10528 10526 10523 10518 10513 10508 10500 10495 10486 10479 10476 10475 10467 10459
10595 10585 10575 10563 10555 10539 10532 10529 10532 10535 10537 10536 10524 10517 10516 10515 10516 10516 10516 10517 10519 10521 10523 10525 10526 10528 10529 10530 10530 10531 10532 10531 10530 10529 10527 10525 10521 10516 10511 10504 10497 10490 10485 10477 10473 10471 10460
10594 10590 10579 10566 10558 10555 10543 10539 10533 10536 10539 10539 10533 10526 10524 10523 10523 10523 10524 10523 10524 10525 10526 10527 10528 10530 10531 10531 10532 10532 10532 10532 10532 10529 10528 10527 10523 10519 10513 10507 10502 10495 10487 10481 10473 10469 10458
10591 10589 10579 10574 10565 10556 10550 10548 10543 10544 10538 10538 10536 10531 10527 10528 10527 10527 10528 10528 10527 10527 10527 10528 10529 10530 10531 10532 10532 10532 10532 10532 10532 10530 10528 10526 10524 10520 10516 10509 10504 10498 10490 10484 10477 10468 10459
10590 10582 10581 10572 10570 10563 10558 10551 10547 10546 10545 10541 10536 10529 10528 10527 10528 10527 10526 10528 10530 10530 10529 10529 10529 10531 10531 10531 10532 10532 10532 10532 10532 10530 10528 10526 10524 10520 10516 10511 10506 10499 10493 10485 10477 10471 10458
10583 10580 10574 10569 10564 10555 10552 10544 10538 10539 10540 10540 10536 10530 10524 10523 10525 10526 10525 10526 10527 10529 10530 10529 10530 10530 10530 10529 10529 10530 10529 10529 10530 10529 10527 10525 10523 10520 10515 10511 10507 10500 10493 10486 10478 10469 10461